Weather History for Manistique, MI

Change the Weather History Date:

Tuesday, January 8, 2013

  Actual Average Record
Temperature  
Mean Temperature 30 °F -  
Max Temperature 37 °F 23 °F 41 °F (2003)
Min Temperature 24 °F 5 °F -19 °F (1968)
Degree Days  
Heating Degree Days 34    
Moisture  
Dew Point 28 °F    
Average Humidity 79    
Maximum Humidity 87    
Minimum Humidity 70    
Precipitation  
Precipitation 0.00 in - - ()
Sea Level Pressure  
Sea Level Pressure 30.00 in    
Wind  
Wind Speed 8 mph (SSW)    
Max Wind Speed 16 mph    
Max Gust Speed 23 mph    
Visibility 10 miles    
Events      
Averages and records for this station are not official NWS values.
T = Trace of Precipitation, MM = Missing Value Source: NWS Daily Summary

Daily Weather History Graph

Daily Weather History Graph

Search for Another Location

Airport:

Trip Planner

Search our weather history database for the weather conditions in past years. The results will help you decide how hot, cold, wet, or windy it might be!

Date:

Astronomy

Jan. 08, 2013 Rise Set
Actual Time 8:25 AM EST 5:17 PM EST
Civil Twilight 7:51 AM EST 5:51 PM EST
Nautical Twilight 7:14 AM EST 6:29 PM EST
Astronomical Twilight 6:38 AM EST 7:05 PM EST
Moon 4:56 AM EST (1/8) 2:20 PM EST (1/8)
Length of Visible Light 10h 00m
Length of Day
8h 52m
Waning Crescent, 14% of the Moon is Illuminated
Jan 8
Waning Crescent
Jan 11
New
Jan 18
First Quarter
Jan 26
Full
Feb 3
Last Quarter

Hourly Weather History & Observations

Time (EST) Temp. Windchill Dew Point Humidity Pressure Visibility Wind Dir Wind Speed Gust Speed Precip Events Conditions
12:14 AM 33.8 °F 25.8 °F 24.8 °F 70% 29.90 in 10.0 mi WSW 10.4 mph - N/A   Clear
12:35 AM 33.8 °F 26.4 °F 24.8 °F 70% 29.91 in 10.0 mi WSW 9.2 mph - N/A   Clear
12:55 AM 33.8 °F 27.7 °F 24.8 °F 70% 29.92 in 10.0 mi WSW 6.9 mph - N/A   Clear
1:15 AM 32.0 °F 25.6 °F 24.8 °F 75% 29.93 in 10.0 mi WSW 6.9 mph - N/A   Clear
1:54 AM 32.0 °F 24.8 °F 24.8 °F 75% 29.93 in 10.0 mi WSW 8.1 mph - N/A   Clear
2:15 AM 32.0 °F 26.4 °F 24.8 °F 75% 29.94 in 10.0 mi WSW 5.8 mph - N/A   Clear
2:35 AM 32.0 °F 25.6 °F 24.8 °F 75% 29.94 in 10.0 mi WSW 6.9 mph - N/A   Clear
2:54 AM 32.0 °F 24.8 °F 24.8 °F 75% 29.95 in 10.0 mi West 8.1 mph - N/A   Clear
3:15 AM 32.0 °F 24.2 °F 24.8 °F 75% 29.96 in 10.0 mi West 9.2 mph - N/A   Clear
3:35 AM 32.0 °F 24.8 °F 24.8 °F 75% 29.96 in 10.0 mi West 8.1 mph - N/A   Clear
3:55 AM 32.0 °F 25.6 °F 24.8 °F 75% 29.97 in 10.0 mi West 6.9 mph - N/A   Clear
4:15 AM 30.2 °F 22.6 °F 24.8 °F 80% 29.97 in 10.0 mi West 8.1 mph - N/A   Clear
4:35 AM 30.2 °F 24.3 °F 23.0 °F 75% 29.98 in 10.0 mi West 5.8 mph - N/A   Clear
4:55 AM 30.2 °F 24.3 °F 23.0 °F 75% 29.98 in 10.0 mi West 5.8 mph - N/A   Clear
5:15 AM 30.2 °F 25.4 °F 23.0 °F 75% 29.99 in 10.0 mi West 4.6 mph - N/A   Clear
5:35 AM 30.2 °F 24.3 °F 23.0 °F 75% 29.99 in 10.0 mi West 5.8 mph - N/A   Clear
5:54 AM 30.2 °F 24.3 °F 23.0 °F 75% 29.99 in 10.0 mi West 5.8 mph - N/A   Clear
6:15 AM 30.2 °F 22.6 °F 23.0 °F 75% 29.99 in 10.0 mi West 8.1 mph - N/A   Clear
6:35 AM 30.2 °F 23.4 °F 23.0 °F 75% 30.00 in 10.0 mi West 6.9 mph - N/A   Clear
6:54 AM 28.4 °F - 21.2 °F 74% 30.01 in 10.0 mi Calm Calm - N/A   Clear
7:15 AM 28.4 °F - 23.0 °F 80% 30.02 in 10.0 mi Calm Calm - N/A   Clear
7:35 AM 28.4 °F - 23.0 °F 80% 30.03 in 10.0 mi Calm Calm - N/A   Clear
7:54 AM 26.6 °F - 21.2 °F 80% 30.05 in 10.0 mi Calm Calm - N/A   Clear
8:15 AM 24.8 °F 20.5 °F 21.2 °F 86% 30.05 in 10.0 mi South 3.5 mph - N/A   Clear
8:34 AM 26.6 °F 21.2 °F 21.2 °F 80% 30.06 in 10.0 mi SSW 4.6 mph - N/A   Clear
9:15 AM 28.4 °F 22.2 °F 23.0 °F 80% 30.08 in 10.0 mi SSW 5.8 mph - N/A   Clear
9:34 AM 30.2 °F 25.4 °F 23.0 °F 75% 30.08 in 10.0 mi SSW 4.6 mph - N/A   Clear
9:55 AM 30.2 °F 26.7 °F 24.8 °F 80% 30.09 in 10.0 mi SSW 3.5 mph - N/A   Clear
10:15 AM 32.0 °F 26.4 °F 24.8 °F 75% 30.08 in 10.0 mi SSW 5.8 mph - N/A   Clear
10:34 AM 33.8 °F 27.7 °F 26.6 °F 75% 30.08 in 10.0 mi SSW 6.9 mph - N/A   Clear
10:55 AM 33.8 °F 28.6 °F 26.6 °F 75% 30.09 in 10.0 mi SSW 5.8 mph - N/A   Clear
11:14 AM 33.8 °F 28.6 °F 26.6 °F 75% 30.09 in 10.0 mi SSW 5.8 mph - N/A   Clear
11:35 AM 33.8 °F 27.7 °F 26.6 °F 75% 30.09 in 10.0 mi SSW 6.9 mph - N/A   Clear
11:54 AM 35.6 °F 31.7 °F 26.6 °F 70% 30.09 in 10.0 mi SSW 4.6 mph - N/A   Clear
12:15 PM 35.6 °F 32.8 °F 26.6 °F 70% 30.09 in 10.0 mi SSW 3.5 mph - N/A   Clear
12:35 PM 35.6 °F 31.7 °F 26.6 °F 70% 30.08 in 10.0 mi SSW 4.6 mph - N/A   Clear
12:55 PM 35.6 °F 30.7 °F 28.4 °F 75% 30.08 in 10.0 mi South 5.8 mph - N/A   Clear
1:15 PM 35.6 °F 29.2 °F 28.4 °F 75% 30.07 in 10.0 mi South 8.1 mph - N/A   Clear
1:34 PM 37.4 °F 32.8 °F 28.4 °F 70% 30.07 in 10.0 mi South 5.8 mph - N/A   Clear
1:55 PM 37.4 °F 32.1 °F 30.2 °F 75% 30.06 in 10.0 mi South 6.9 mph - N/A   Clear
2:15 PM 37.4 °F 32.8 °F 30.2 °F 75% 30.06 in 10.0 mi SSE 5.8 mph - N/A   Clear
2:55 PM 35.6 °F 30.7 °F 30.2 °F 81% 30.06 in 10.0 mi SSE 5.8 mph - N/A   Mostly Cloudy
3:14 PM 35.6 °F 31.7 °F 30.2 °F 81% 30.06 in 10.0 mi SSE 4.6 mph - N/A   Scattered Clouds
3:35 PM 37.4 °F 33.8 °F 32.0 °F 81% 30.06 in 10.0 mi South 4.6 mph - N/A   Mostly Cloudy
3:55 PM 37.4 °F 32.1 °F 32.0 °F 81% 30.06 in 10.0 mi South 6.9 mph - N/A   Mostly Cloudy
4:15 PM 37.4 °F 32.8 °F 32.0 °F 81% 30.06 in 10.0 mi South 5.8 mph - N/A   Overcast
4:35 PM 37.4 °F 30.8 °F 32.0 °F 81% 30.06 in 10.0 mi South 9.2 mph 16.1 mph N/A   Overcast
4:54 PM 37.4 °F 28.9 °F 32.0 °F 81% 30.05 in 10.0 mi South 13.8 mph 18.4 mph N/A   Overcast
5:15 PM 37.4 °F 29.8 °F 32.0 °F 81% 30.04 in 10.0 mi South 11.5 mph 16.1 mph N/A   Overcast
5:35 PM 37.4 °F 28.9 °F 32.0 °F 81% 30.04 in 10.0 mi South 13.8 mph 17.3 mph N/A   Overcast
5:54 PM 37.4 °F 30.3 °F 33.8 °F 87% 30.03 in 7.0 mi South 10.4 mph - N/A   Overcast
6:15 PM 37.4 °F 29.8 °F 32.0 °F 81% 30.02 in 10.0 mi South 11.5 mph - N/A   Overcast
6:34 PM 37.4 °F 30.3 °F 33.8 °F 87% 30.01 in 10.0 mi South 10.4 mph 18.4 mph N/A   Overcast
6:55 PM 37.4 °F 30.8 °F 33.8 °F 87% 30.00 in 10.0 mi South 9.2 mph - N/A   Scattered Clouds
7:14 PM 37.4 °F 30.3 °F 33.8 °F 87% 30.00 in 7.0 mi SSE 10.4 mph - N/A   Scattered Clouds
7:35 PM 37.4 °F 30.3 °F 33.8 °F 87% 29.97 in 7.0 mi SE 10.4 mph - N/A   Clear
7:55 PM 37.4 °F 30.8 °F 33.8 °F 87% 29.97 in 7.0 mi SSE 9.2 mph - N/A   Clear
8:14 PM 37.4 °F 29.8 °F 33.8 °F 87% 29.96 in 7.0 mi SSE 11.5 mph - N/A   Clear
8:35 PM 37.4 °F 29.8 °F 33.8 °F 87% 29.95 in 7.0 mi SSE 11.5 mph 17.3 mph N/A   Clear
8:54 PM 37.4 °F 29.3 °F 33.8 °F 87% 29.94 in 10.0 mi SSE 12.7 mph 18.4 mph N/A   Clear
9:15 PM 37.4 °F 29.8 °F 33.8 °F 87% 29.93 in 10.0 mi SSE 11.5 mph 18.4 mph N/A   Clear
9:35 PM 37.4 °F 29.3 °F 32.0 °F 81% 29.91 in 10.0 mi South 12.7 mph - N/A   Clear
9:54 PM 37.4 °F 28.9 °F 32.0 °F 81% 29.91 in 10.0 mi South 13.8 mph 18.4 mph N/A   Scattered Clouds
10:15 PM 37.4 °F 28.5 °F 33.8 °F 87% 29.89 in 10.0 mi South 15.0 mph 23.0 mph N/A   Mostly Cloudy
10:34 PM 37.4 °F 29.3 °F 33.8 °F 87% 29.89 in 10.0 mi South 12.7 mph 18.4 mph N/A   Scattered Clouds
11:15 PM 37.4 °F 28.2 °F 33.8 °F 87% 29.87 in 10.0 mi South 16.1 mph 21.9 mph N/A   Scattered Clouds
11:34 PM 37.4 °F 28.5 °F 33.8 °F 87% 29.86 in 10.0 mi South 15.0 mph 23.0 mph N/A   Mostly Cloudy